Regional Weather Roundup
Issued by NWS Little Rock, AR

Home | Current Version | Previous Version | Graphics & Text | Print | Product List | Glossary On
Versions: 1 2 3 4 5 6 7 8 9 10 11 12 13 14 15 16 17 18 19 20 21 22 23 24 25 26 27
000
ASUS44 KLZK 232205
RWRLZK

WEATHER ROUNDUP FOR ARKANSAS
NATIONAL WEATHER SERVICE LITTLE ROCK AR
500 PM CDT SAT JUL 23 2016

NOTE: "FAIR" INDICATES FEW OR NO CLOUDS BELOW 12,000 FEET WITH NO
SIGNIFICANT WEATHER AND/OR OBSTRUCTIONS TO VISIBILITY.

ARZ001-003-010-029-232300-
NORTHWEST ARKANSAS

CITY           SKY/WX    TMP DP  RH WIND       PRES   REMARKS
FAYETTEVILLE   SUNNY     93  74  53 S7        29.93F HX 103
FORT SMITH     MOSUNNY  100  69  36 S3        29.87F HX 106
HARRISON       PTSUNNY   93  71  48 NE3       29.94F HX 100
BENTONVILLE    SUNNY     95  72  46 CALM      29.95F HX 103
ROGERS         MOSUNNY   94  74  52 CALM      29.95F HX 104
SILOAM SPGS    MOSUNNY   97  68  38 CALM      29.95S HX 101
HIGHFILL       MOSUNNY   95  74  50 S6        29.93F HX 105
SPRINGDALE     MOSUNNY   93  75  55 E5        29.96F HX 104
$$

ARZ004-005-016-232300-
NORTH CENTRAL ARKANSAS

CITY           SKY/WX    TMP DP  RH WIND       PRES   REMARKS
BATESVILLE     CLOUDY    95  75  52 SE10      29.89F THUNDER HX 107
FLIPPIN        SUNNY     97  72  44 NW3       29.88F HX 105
MTN HOME       SUNNY     94  71  47 W3        29.90F HX 101
$$

ARZ040-041-232300-
WEST CENTRAL ARKANSAS

CITY           SKY/WX    TMP DP  RH WIND       PRES   REMARKS
MENA           CLOUDY    79  77  94 CALM      29.98R
MOUNT IDA      CLOUDY    80  77  90 CALM      29.93S HX  87
$$

ARZ009-017-025-026-028-232300-
NORTHEAST ARKANSAS

CITY           SKY/WX    TMP DP  RH WIND       PRES   REMARKS
CORNING          N/A     95  77  55 NE9       29.90F HX 109
JONESBORO      CLOUDY    91  78  65 SE8       29.90F HX 106
NEWPORT        CLOUDY    89  78  70 S10       29.91S HX 102
WALNUT RIDGE   SUNNY     93  79  62 SE9       29.88F HX 110
BLYTHEVILLE    SUNNY     91  77  63 W3        29.91F HX 104
$$

ARZ022-023-033-042-044-232300-
CENTRAL ARKANSAS

CITY           SKY/WX    TMP DP  RH WIND       PRES   REMARKS
LITTLE ROCK    TSTM      88  70  55 NE10G23   29.90R HX  93
N LITTLE ROCK    N/A     88  73  60 W5        29.87R HX  95
JACKSONVILLE   CLOUDY    88  76  67 E12G26    29.91R THUNDER HX  98
SEARCY         CLOUDY    79  72  79 S13       29.93S THUNDER
HOT SPRINGS    TSTM      80  72  76 SE10G24   29.93R
RUSSELLVILLE   CLOUDY    97  73  45 CALM      29.86F HX 107
$$

ARZ036-232300-
EAST ARKANSAS

CITY           SKY/WX    TMP DP  RH WIND       PRES   REMARKS
WEST MEMPHIS   CLOUDY    85  73  67 S6        29.92S HX  91
$$

ARZ050-053-066-070-073-232300-
SOUTHWEST ARKANSAS

CITY           SKY/WX    TMP DP  RH WIND       PRES   REMARKS
CAMDEN         CLOUDY    77  68  73 CALM      29.91F
TEXARKANA      TSTM      79  73  82 N21G31    30.01R
EL DORADO      CLOUDY    79  71  76 SW5       29.91F
DE QUEEN       CLOUDY    89  75  63 E13       29.90R HX  99
$$

ARZ056-057-069-232300-
SOUTHEAST ARKANSAS

CITY           SKY/WX    TMP DP  RH WIND       PRES   REMARKS
PINE BLUFF     MOSUNNY   83  71  67 SE13G26   29.89F HX  87
STUTTGART      CLOUDY    91  73  55 S13       29.92R HX 100
MONTICELLO     CLOUDY    91  76  61 SW14G21   29.91R THUNDER HX 103

$$






USA.gov is the U.S. government's official web portal to all federal, state and local government web resources and services.